FW3082 Weather Reports


Display with metric or nautical units.
time (UTC)temp
F
wind
direction
speed
MPH
gust
MPH
rain 1hr
in
rain 24hr
in
rain mn
in
humidity
%
barometer
mb
20190522024055 60 270 8.0 18.0 0.00 0.00 0.00 60 1009.5
20190522023056 60 245 10.0 23.0 0.00 0.00 0.00 60 1009.4
20190522022055 61 272 15.0 20.0 0.00 0.00 0.00 60 1009.2
20190522021055 61 244 3.0 24.0 0.00 0.00 0.00 60 1009.0
20190522020055 61 261 4.0 22.0 0.00 0.00 0.00 58 1009.1
20190522015055 62 215 4.0 21.0 0.00 0.00 0.00 57 1009.0
20190522014055 63 278 9.0 17.0 0.00 0.00 0.00 57 1009.0
20190522013055 64 294 10.0 19.0 0.00 0.00 0.00 56 1009.1
20190522012054 64 244 8.0 17.0 0.00 0.00 0.00 55 1009.2
20190522011054 64 269 7.0 16.0 0.00 0.00 0.00 55 1009.3
20190522010054 64 254 7.0 28.0 0.00 0.00 0.00 55 1009.5
20190522005054 65 192 4.0 18.0 0.00 0.00 0.00 53 1009.5
20190522004053 65 248 9.0 19.0 0.00 0.00 0.00 52 1009.3
20190522003053 65 269 11.0 19.0 0.00 0.00 0.00 52 1009.3
20190522002053 67 257 17.0 24.0 0.00 0.00 0.00 50 1009.4
20190522001053 67 222 11.0 19.0 0.00 0.00 0.00 51 1009.2
20190522000122 66 304 13.0 23.0 0.00 0.00 0.00 51 1009.4
20190521235052 67 244 9.0 24.0 0.00 0.00 0.00 50 1009.5
20190521234052 67 233 4.0 23.0 0.00 0.00 0.00 49 1009.5
20190521233052 68 227 6.0 21.0 0.00 0.00 0.00 48 1009.7
20190521232052 68 245 15.0 35.0 0.00 0.00 0.00 49 1009.8
20190521231052 68 255 8.0 19.0 0.00 0.00 0.00 48 1009.6
20190521230051 68 257 7.0 26.0 0.00 0.00 0.00 49 1009.7
20190521225051 68 252 15.0 23.0 0.00 0.00 0.00 48 1009.7
20190521224051 68 244 4.0 25.0 0.00 0.00 0.00 47 1009.7
20190521223051 68 215 17.0 22.0 0.00 0.00 0.00 47 1009.8
20190521222051 68 202 8.0 20.0 0.00 0.00 0.00 47 1009.9
20190521221051 69 238 16.0 25.0 0.00 0.00 0.00 47 1010.1
20190521220121 69 246 7.0 20.0 0.00 0.00 0.00 46 1010.0
20190521215050 69 261 8.0 21.0 0.00 0.00 0.00 46 1009.8
20190521214050 70 236 10.0 18.0 0.00 0.00 0.00 45 1010.2
20190521213050 69 254 12.0 20.0 0.00 0.00 0.00 46 1010.3
20190521212050 69 268 16.0 22.0 0.00 0.00 0.00 47 1010.3
20190521211050 69 284 17.0 25.0 0.00 0.00 0.00 47 1010.4
20190521210049 70 253 9.0 18.0 0.00 0.00 0.00 46 1010.4
20190521205049 70 230 3.0 21.0 0.00 0.00 0.00 47 1010.4
20190521204049 69 258 12.0 22.0 0.00 0.00 0.00 46 1010.5
20190521203049 70 243 15.0 26.0 0.00 0.00 0.00 45 1010.8
20190521202049 69 250 1.0 23.0 0.00 0.00 0.00 45 1010.8
20190521201049 68 244 11.0 25.0 0.00 0.00 0.00 46 1010.9
20190521200118 68 259 17.0 18.0 0.00 0.00 0.00 47 1011.0
20190521195048 68 276 15.0 22.0 0.00 0.00 0.00 47 1011.3
20190521194048 67 235 11.0 21.0 0.00 0.00 0.00 47 1011.6
20190521193048 68 215 4.0 21.0 0.00 0.00 0.00 49 1011.5
20190521192048 67 260 7.0 21.0 0.00 0.00 0.00 48 1011.7
20190521191048 67 259 9.0 21.0 0.00 0.00 0.00 48 1011.7
20190521190117 67 276 8.0 19.0 0.00 0.00 0.00 47 1011.8
20190521185047 66 271 7.0 23.0 0.00 0.00 0.00 50 1011.9
20190521184047 66 289 8.0 27.0 0.00 0.00 0.00 49 1012.2
20190521183047 65 167 3.0 13.0 0.00 0.00 0.00 52 1012.2
20190521182047 63 268 7.0 17.0 0.00 0.00 0.00 54 1012.2
20190521181047 63 236 3.0 11.0 0.00 0.00 0.00 54 1012.4
20190521180116 63 229 3.0 17.0 0.00 0.00 0.00 55 1012.3
20190521175046 62 311 3.0 13.0 0.00 0.00 0.00 59 1012.3
20190521174046 62 202 10.0 13.0 0.00 0.00 0.00 61 1012.6
20190521173045 61 241 6.0 19.0 0.00 0.00 0.00 61 1012.8
20190521172045 61 244 2.0 12.0 0.00 0.00 0.00 62 1012.9
20190521171045 61 244 7.0 13.0 0.00 0.00 0.00 64 1013.1
20190521170115 61 305 2.0 15.0 0.00 0.00 0.00 64 1013.1
20190521165045 61 263 6.0 12.0 0.00 0.00 0.00 65 1013.0
20190521164045 61 263 3.0 11.0 0.00 0.00 0.00 65 1013.0
20190521163114 62 194 1.0 13.0 0.00 0.00 0.00 65 1013.2
20190521162116 63 284 8.0 15.0 0.00 0.00 0.00 63 1013.1
20190521161114 62 296 10.0 16.0 0.00 0.00 0.00 64 1013.2
20190521160114 60 308 4.0 12.0 0.00 0.00 0.00 66 1013.2
20190521155114 60 312 4.0 9.0 0.00 0.00 0.00 65 1013.2
20190521154113 60 281 3.0 9.0 0.00 0.00 0.00 64 1013.3
20190521153113 59 296 4.0 8.0 0.00 0.00 0.00 63 1013.5
20190521152113 60 225 3.0 8.0 0.00 0.00 0.00 60 1013.7
20190521151113 59 327 1.0 4.0 0.00 0.00 0.00 59 1013.9
20190521150112 60 270 1.0 4.0 0.00 0.00 0.00 58 1013.7
20190521145112 59 279 4.0 7.0 0.00 0.00 0.00 59 1013.7
20190521144112 59 289 3.0 7.0 0.00 0.00 0.00 63 1013.5
20190521143112 58 52 1.0 8.0 0.00 0.00 0.00 64 1013.4
20190521142112 57 346 2.0 5.0 0.00 0.00 0.00 65 1013.5
20190521141112 57 36 0.0 9.0 0.00 0.00 0.00 67 1013.5
20190521140111 57 314 2.0 6.0 0.00 0.00 0.00 68 1013.4
20190521135112 57 348 3.0 6.0 0.00 0.00 0.00 67 1013.4
20190521134111 56 350 1.0 5.0 0.00 0.00 0.00 68 1013.3
20190521133111 56 315 2.0 8.0 0.00 0.00 0.00 65 1013.2
20190521132111 56 26 1.0 14.0 0.00 0.00 0.00 66 1013.3
20190521131111 56 306 5.0 17.0 0.00 0.00 0.00 67 1013.5
20190521130111 55 313 5.0 19.0 0.00 0.00 0.00 69 1013.5
20190521125110 55 338 4.0 24.0 0.00 0.00 0.00 70 1013.3
20190521124110 55 336 16.0 23.0 0.00 0.00 0.00 71 1013.3
20190521123110 55 304 13.0 15.0 0.00 0.00 0.00 72 1013.7
20190521122110 55 333 12.0 17.0 0.00 0.00 0.00 73 1013.4
20190521121109 55 302 4.0 15.0 0.00 0.00 0.00 74 1013.2
20190521120109 54 360 4.0 21.0 0.00 0.00 0.00 74 1013.5
20190521115109 54 334 5.0 25.0 0.00 0.00 0.00 74 1013.6
20190521114109 55 277 14.0 26.0 0.00 0.00 0.00 74 1013.3
20190521113109 55 317 8.0 24.0 0.00 0.00 0.00 74 1013.4
20190521112109 55 271 4.0 13.0 0.00 0.00 0.00 74 1013.3
20190521111108 55 250 5.0 17.0 0.00 0.00 0.00 73 1013.1
20190521110108 55 309 3.0 25.0 0.00 0.00 0.00 73 1013.3
20190521105108 55 321 3.0 19.0 0.00 0.00 0.00 73 1013.2
20190521104108 55 12 7.0 20.0 0.00 0.00 0.00 73 1013.2
20190521103108 55 302 22.0 22.0 0.00 0.00 0.00 72 1013.3
20190521102107 55 332 4.0 19.0 0.00 0.00 0.00 72 1013.4
20190521101107 55 340 3.0 24.0 0.00 0.00 0.00 72 1013.7
20190521100107 55 300 12.0 16.0 0.00 0.00 0.00 71 1013.5
20190521095108 56 275 9.0 22.0 0.00 0.00 0.00 71 1013.6
20190521094108 55 284 8.0 16.0 0.00 0.00 0.00 72 1013.7
20190521093106 55 319 6.0 24.0 0.00 0.00 0.00 73 1013.7
20190521092106 55 269 4.0 20.0 0.00 0.00 0.00 72 1014.0
20190521091106 56 313 8.0 18.0 0.00 0.00 0.00 71 1014.0
20190521090106 56 338 10.0 16.0 0.00 0.00 0.00 71 1014.0
20190521085106 56 326 10.0 13.0 0.00 0.00 0.00 71 1013.9
20190521084106 56 319 11.0 13.0 0.00 0.00 0.00 71 1014.0
20190521083105 56 301 5.0 14.0 0.00 0.00 0.00 72 1013.9
20190521082105 56 324 2.0 16.0 0.00 0.00 0.00 71 1013.9
20190521081105 56 304 3.0 11.0 0.00 0.00 0.00 70 1014.0
20190521080105 57 355 8.0 17.0 0.00 0.00 0.00 69 1014.0
20190521075105 57 308 7.0 18.0 0.00 0.00 0.00 68 1014.2
20190521074105 57 346 3.0 18.0 0.00 0.00 0.00 69 1014.0
20190521073105 57 15 10.0 16.0 0.00 0.00 0.00 69 1013.9
20190521072104 57 315 4.0 16.0 0.00 0.00 0.00 69 1014.2
20190521071105 57 20 5.0 20.0 0.00 0.00 0.00 68 1014.1
20190521070104 57 338 8.0 18.0 0.00 0.00 0.00 69 1014.3
20190521065104 57 336 8.0 19.0 0.00 0.00 0.00 70 1014.7
20190521064104 57 337 3.0 22.0 0.00 0.00 0.00 71 1014.7
20190521063104 57 340 8.0 20.0 0.00 0.00 0.00 70 1014.6
20190521062104 57 345 11.0 22.0 0.00 0.00 0.00 71 1014.5
20190521061103 57 339 9.0 20.0 0.00 0.00 0.00 72 1014.3
20190521060103 57 332 18.0 22.0 0.00 0.00 0.00 73 1013.9
20190521055103 57 313 10.0 27.0 0.00 0.00 0.00 72 1014.1
20190521054103 58 332 19.0 22.0 0.00 0.00 0.00 71 1013.9
20190521053103 57 5 15.0 21.0 0.00 0.00 0.00 73 1013.9
20190521052102 57 286 14.0 22.0 0.00 0.00 0.00 73 1014.0
20190521051103 58 317 10.0 26.0 0.00 0.00 0.00 73 1014.0
20190521050102 58 346 16.0 28.0 0.00 0.00 0.00 72 1014.0
20190521045102 59 348 9.0 25.0 0.00 0.00 0.00 71 1013.7
20190521044102 59 360 12.0 24.0 0.00 0.00 0.00 70 1013.5
20190521043102 59 344 10.0 26.0 0.00 0.00 0.00 69 1013.3
20190521042101 59 314 18.0 27.0 0.00 0.00 0.00 69 1013.1
20190521041101 60 327 22.0 27.0 0.00 0.00 0.00 67 1012.8
20190521040101 61 355 8.0 29.0 0.00 0.00 0.00 65 1012.9
20190521035101 61 294 19.0 25.0 0.00 0.00 0.00 66 1012.7
20190521034101 60 304 14.0 18.0 0.00 0.00 0.00 67 1013.0
20190521033100 60 327 9.0 12.0 0.00 0.00 0.00 66 1013.1
20190521032100 60 294 4.0 21.0 0.00 0.00 0.00 64 1012.8
20190521031100 60 5 13.0 28.0 0.00 0.00 0.00 64 1012.6
20190521030100 61 341 9.0 26.0 0.00 0.00 0.00 63 1012.5
20190521025100 61 315 6.0 25.0 0.00 0.00 0.00 63 1012.5